Lid_Strength_Index
5 8 9 8 13 15 17 15 14 12 12 11 11 11 12 13 12 14 11 9 6 7 6 3 0 -0 -0 1 1 2 2 2 1 0 -1 -1 -1 -1 -1 -1 -1 -1 -1 -1 -1 -1 -1 -1 -1
8 9 9 12 16 20 19 15 14 12 11 11 12 12 12 14 12 12 12 9 8 7 6 4 1 1 0 0 -0 0 2 2 2 2 1 -0 -1 -1 -1 -1 -1 -1 -1 -1 -1 -1 -1 -1 -1
10 10 11 14 18 19 18 16 15 14 13 13 14 13 13 14 13 13 12 9 9 9 7 5 2 1 1 1 1 0 0 2 2 3 3 1 0 -1 -1 -1 -1 -1 -1 -1 -1 -1 -1 -1 -1
11 13 15 17 18 17 16 15 15 15 15 13 14 15 14 13 13 12 10 10 10 10 9 6 3 3 2 2 2 1 1 0 1 2 3 3 2 1 0 -1 -1 -1 -1 -1 -1 -1 -1 -1 -1
14 16 19 20 19 17 17 15 15 16 16 16 15 15 15 13 12 11 11 10 11 11 10 9 5 5 4 3 3 2 2 2 1 1 2 3 5 4 2 0 -1 -1 -1 -1 -1 -1 -1 -1 -1
16 17 21 21 20 18 17 16 16 17 17 16 16 16 15 12 12 12 11 12 11 11 10 10 8 7 6 5 4 4 3 3 2 2 2 3 4 5 4 2 2 -1 -1 -1 -1 -1 -1 -1 -1
17 19 21 22 21 19 16 16 17 17 17 17 15 17 16 14 13 12 12 13 12 11 12 12 11 10 9 8 7 6 5 4 4 3 3 3 3 5 6 5 3 2 0 -1 -1 -1 -1 -1 -1
17 18 21 21 20 18 17 16 16 16 17 15 14 16 16 14 12 13 13 13 13 12 12 13 13 12 12 11 8 7 7 6 6 6 5 5 5 6 6 6 6 3 2 0 -1 -1 -1 -1 -1
16 19 21 19 19 18 17 17 16 15 16 16 15 16 15 13 13 14 14 14 14 13 13 13 13 13 12 11 10 9 9 8 8 7 7 7 7 7 7 6 6 5 3 1 -0 -0 -1 0 1
17 20 19 18 19 18 17 18 17 17 17 16 16 15 14 13 14 14 15 15 15 15 14 14 14 13 13 11 11 12 11 11 10 9 9 8 8 7 6 6 5 5 3 1 0 -0 0 1 -0
17 19 18 17 17 17 17 18 17 18 18 16 16 15 15 15 15 15 15 15 15 15 15 14 14 14 14 13 12 13 12 12 11 10 10 9 8 8 7 7 6 5 5 3 2 0 -0 -0 0
18 16 16 15 15 16 17 17 17 17 16 15 15 15 15 15 15 15 15 15 15 16 15 14 14 14 14 13 13 13 13 12 12 11 10 9 9 9 8 7 6 5 4 5 3 2 -0 -0 0
18 17 15 16 16 17 16 17 17 16 15 15 15 15 15 15 15 15 15 15 15 16 16 15 15 14 14 14 14 14 13 13 12 11 10 9 9 9 9 8 7 6 5 4 5 3 1 0 0
16 16 16 15 16 16 17 18 17 15 17 16 16 16 15 15 15 16 16 16 16 15 15 15 14 14 14 14 14 14 13 13 12 11 11 9 9 9 9 8 7 6 5 5 4 4 2 0 0
16 18 17 16 16 17 17 18 18 15 16 16 17 16 16 16 16 16 16 16 16 16 15 15 14 14 14 14 14 14 13 12 12 11 11 9 8 8 8 7 7 6 5 4 4 3 1 1 0
17 18 20 17 17 17 17 20 15 15 17 17 17 18 17 16 15 16 16 16 16 16 15 15 14 14 14 14 14 13 13 12 12 11 10 9 8 8 8 8 8 6 5 4 4 3 1 1 1
19 21 20 18 16 17 18 20 15 16 18 17 18 18 18 18 17 17 17 17 16 16 15 15 15 15 14 14 13 13 13 12 12 11 10 9 8 8 8 8 8 7 5 5 4 3 1 1 1
21 21 19 20 18 18 19 20 16 15 18 18 18 18 18 18 17 17 16 16 16 16 16 16 15 14 14 13 13 13 12 11 12 11 10 9 9 8 8 8 8 7 6 5 4 3 1 1 5
18 19 20 19 18 19 19 20 18 16 18 18 18 19 19 18 17 17 16 16 16 16 16 16 16 15 14 14 14 14 14 13 12 11 10 10 10 9 8 7 6 6 6 5 5 4 2 2 5
18 19 20 18 18 19 20 20 18 17 18 19 19 19 18 19 19 18 17 17 17 17 17 16 16 15 15 14 14 13 13 13 12 11 10 9 7 6 6 5 6 6 5 5 5 4 3 2 4
18 19 19 20 19 20 21 22 21 18 19 19 18 19 18 18 19 19 18 19 18 18 18 17 16 16 16 15 14 13 13 13 13 12 11 9 9 8 6 5 5 5 4 5 5 4 3 3 2
20 17 17 18 22 24 20 27 21 19 19 18 17 18 19 20 19 19 18 19 19 18 18 18 17 16 16 15 15 15 15 16 14 13 11 10 9 8 6 6 6 6 5 5 3 2 3 2 3
19 17 18 19 23 26 22 25 22 21 20 18 18 17 19 20 20 19 20 18 19 18 19 19 18 17 15 15 15 15 16 14 13 12 11 11 10 8 7 7 7 7 6 6 5 5 4 2 2
16 18 18 20 22 28 23 24 22 22 21 19 18 18 17 19 18 19 19 18 19 19 19 18 18 16 16 16 16 16 16 15 14 12 12 11 9 8 8 8 8 8 7 7 7 6 5 5 4
17 18 21 26 29 26 22 24 20 20 20 21 21 19 21 20 19 20 20 20 20 20 19 18 17 17 17 17 17 16 16 15 13 12 11 11 10 10 9 9 9 9 8 8 7 7 6 7 6
17 18 21 28 29 24 22 25 19 20 24 25 23 23 20 19 19 20 20 21 20 19 19 18 18 18 17 18 18 17 16 15 12 12 12 11 10 10 9 9 9 10 9 9 8 7 7 9 9
18 20 19 27 27 25 23 20 18 18 21 23 22 19 19 20 21 22 21 21 21 20 19 19 19 18 19 19 18 17 17 15 13 13 12 12 11 10 10 10 10 10 10 10 10 9 10 10 10
17 17 21 22 25 28 24 25 23 23 22 21 22 20 20 20 21 22 22 22 21 20 20 20 20 22 22 20 19 17 17 16 14 14 13 12 11 11 11 11 11 11 11 10 10 9 10 10 10
19 19 20 20 25 28 28 24 23 24 24 22 20 19 22 22 23 23 23 23 24 23 24 23 23 24 22 21 20 18 18 17 16 15 12 12 12 12 12 12 12 12 12 10 10 10 10 11 10
18 19 19 24 27 31 28 23 25 25 28 27 21 19 21 22 24 24 24 26 26 26 26 26 25 25 22 21 20 18 17 16 18 17 15 12 12 12 12 12 12 12 12 11 11 11 11 11 11